TimeEST,TemperatureF,Dew PointF,Humidity,Sea Level PressureIn,VisibilityMPH,Wind Direction,Wind SpeedMPH,Gust SpeedMPH,PrecipitationIn,Events,Conditions,WindDirDegrees,DateUTC
12:52 AM,39.0,27.0,62,30.18,10.0,South,5.8,-,N/A,,Overcast,190,2013-01-06 05:52:00
1:52 AM,37.9,28.9,70,30.19,10.0,North,5.8,-,0.00,,Overcast,350,2013-01-06 06:52:00
2:52 AM,37.0,28.9,73,30.14,10.0,ESE,4.6,-,0.00,,Overcast,120,2013-01-06 07:52:00
3:52 AM,34.0,28.9,82,30.15,10.0,West,3.5,-,N/A,,Mostly Cloudy,270,2013-01-06 08:52:00
4:52 AM,30.9,27.0,85,30.14,10.0,Calm,Calm,-,N/A,,Scattered Clouds,0,2013-01-06 09:52:00
5:52 AM,30.9,27.0,85,30.13,10.0,Calm,Calm,-,N/A,,Partly Cloudy,0,2013-01-06 10:52:00
6:52 AM,28.4,24.8,86,30.14,10.0,Calm,Calm,-,N/A,,Partly Cloudy,0,2013-01-06 11:52:00
7:52 AM,27.0,25.0,92,30.15,10.0,Calm,Calm,-,N/A,,Mostly Cloudy,0,2013-01-06 12:52:00
8:52 AM,35.1,30.0,82,30.15,10.0,Calm,Calm,-,N/A,,Mostly Cloudy,0,2013-01-06 13:52:00
9:52 AM,37.9,28.9,70,30.16,10.0,South,3.5,-,N/A,,Partly Cloudy,190,2013-01-06 14:52:00
10:52 AM,44.1,27.0,51,30.14,10.0,South,3.5,-,N/A,,Scattered Clouds,190,2013-01-06 15:52:00
11:52 AM,46.9,27.0,46,30.10,10.0,Variable,3.5,-,N/A,,Scattered Clouds,0,2013-01-06 16:52:00
12:52 PM,48.9,26.1,41,30.06,10.0,SSW,8.1,-,N/A,,Overcast,210,2013-01-06 17:52:00
1:52 PM,51.1,27.0,39,30.04,10.0,South,6.9,-,N/A,,Mostly Cloudy,180,2013-01-06 18:52:00
2:52 PM,50.0,26.1,39,30.04,10.0,SW,10.4,-,N/A,,Mostly Cloudy,230,2013-01-06 19:52:00
3:52 PM,48.9,26.1,41,30.04,10.0,WSW,8.1,-,N/A,,Overcast,240,2013-01-06 20:52:00
4:52 PM,46.9,25.0,42,30.05,10.0,WSW,6.9,-,N/A,,Overcast,250,2013-01-06 21:52:00
5:52 PM,46.9,25.0,42,30.06,10.0,West,3.5,-,N/A,,Overcast,280,2013-01-06 22:52:00
6:52 PM,45.0,27.0,49,30.08,10.0,WNW,8.1,-,N/A,,Overcast,290,2013-01-06 23:52:00
7:52 PM,45.0,27.0,49,30.10,10.0,WNW,6.9,-,N/A,,Overcast,290,2013-01-07 00:52:00
8:52 PM,45.0,27.0,49,30.11,10.0,WNW,9.2,-,N/A,,Overcast,290,2013-01-07 01:52:00
9:52 PM,43.0,26.1,51,30.11,10.0,SW,5.8,-,N/A,,Overcast,230,2013-01-07 02:52:00
10:52 PM,41.0,26.1,55,30.13,10.0,WNW,3.5,-,N/A,,Overcast,290,2013-01-07 03:52:00
11:52 PM,39.9,27.0,60,30.15,10.0,NW,4.6,-,N/A,,Overcast,310,2013-01-07 04:52:00